Location: Carrières
(48.9495°N, 2.0407°E)
Time: 19:53:36
(UTC+00:00)

Altair - Pass Details

Date: 25 April 2024
Orbit: 1502 x 1682 km, 47.2° (Epoch: 21 May)

Event Time Altitude Azimuth Distance (km) Brightness Sun altitude
Rises 21:31:17 0° 280° (W) 4,900 10.8 -20.4°
Reaches altitude 10° 21:34:29 10° 279° (W) 3,893 10.2 -20.7°
Maximum altitude 21:44:21 72° 198° (SSW) 1,674 7.5 -21.6°
Enters shadow 21:49:56 29° 121° (ESE) 2,590 8.2 -22.1°
